ZSJWM FACT-FAGG

Flight info

Callsign ZSJWM
Flight time 1h 39m
Altitude 7000
Route OKTED1C OKTED UQ12 XUGOL UQ56 AXEMU DCT GRV
Aircraft C172/L-SFG/C

Departure

Time 2026-04-27 16:46
Airport Cape Town International Airport (FACT)

Arrival

Time 2026-04-27 18:25
Airport George Airport (FAGG)
Time Latitude Longitude Altitude Speed Heading
2026-04-27 15:52 -33.97817 18.59592 151 ft 0 kts 68°
2026-04-27 16:37 -33.97816 18.59595 151 ft 3 kts 335°
2026-04-27 16:38 -33.97880 18.59586 151 ft 10 kts 108°
2026-04-27 16:38 -33.97873 18.59733 151 ft 23 kts 64°
2026-04-27 16:38 -33.97821 18.59927 151 ft 26 kts 66°
2026-04-27 16:38 -33.97762 18.60103 150 ft 7 kts 70°
2026-04-27 16:39 -33.97742 18.60171 150 ft 9 kts 69°
2026-04-27 16:39 -33.97692 18.60180 150 ft 14 kts 342°
2026-04-27 16:39 -33.97565 18.60122 150 ft 24 kts 336°
2026-04-27 16:39 -33.97386 18.60040 151 ft 31 kts 344°
2026-04-27 16:40 -33.97172 18.59974 151 ft 31 kts 346°
2026-04-27 16:40 -33.97061 18.59953 151 ft 1 kts 30°
2026-04-27 16:40 -33.97051 18.59971 151 ft 5 kts 80°
2026-04-27 16:40 -33.97059 18.60034 151 ft 10 kts 98°
2026-04-27 16:41 -33.97078 18.60132 151 ft 10 kts 106°
2026-04-27 16:41 -33.97084 18.60159 151 ft 1 kts 106°
2026-04-27 16:41 -33.97085 18.60161 151 ft 0 kts 106°
2026-04-27 16:44 -33.97093 18.60193 151 ft 11 kts 108°
2026-04-27 16:45 -33.97138 18.60329 151 ft 23 kts 125°
2026-04-27 16:45 -33.97291 18.60409 149 ft 27 kts 156°
2026-04-27 16:45 -33.97545 18.60498 209 ft 49 kts 167°
2026-04-27 16:45 -33.97984 18.60644 236 ft 78 kts 161°
2026-04-27 16:46 -33.98515 18.60836 410 ft 79 kts 164°
2026-04-27 16:46 -33.98996 18.61042 736 ft 67 kts 164°
2026-04-27 16:46 -33.99413 18.61257 1075 ft 67 kts 165°
2026-04-27 16:46 -33.99827 18.61510 1398 ft 71 kts 165°
2026-04-27 16:47 -34.00279 18.61791 1647 ft 75 kts 164°
2026-04-27 16:47 -34.00731 18.62087 1918 ft 72 kts 163°
2026-04-27 16:47 -34.01171 18.62387 2177 ft 74 kts 163°
2026-04-27 16:47 -34.01619 18.62696 2439 ft 74 kts 163°
2026-04-27 16:48 -34.02064 18.63008 2666 ft 73 kts 166°
2026-04-27 16:48 -34.02509 18.63303 2893 ft 73 kts 165°
2026-04-27 16:48 -34.02966 18.63602 3113 ft 75 kts 166°
2026-04-27 16:49 -34.03865 18.64221 3595 ft 75 kts 166°
2026-04-27 16:49 -34.04318 18.64545 3821 ft 76 kts 165°
2026-04-27 16:49 -34.04780 18.64871 4041 ft 77 kts 165°
2026-04-27 16:49 -34.05247 18.65199 4266 ft 78 kts 165°
2026-04-27 16:50 -34.05723 18.65529 4480 ft 79 kts 166°
2026-04-27 16:50 -34.06205 18.65855 4686 ft 79 kts 166°
2026-04-27 16:50 -34.06691 18.66179 4894 ft 80 kts 165°
2026-04-27 16:50 -34.07176 18.66505 5096 ft 80 kts 166°
2026-04-27 16:51 -34.07556 18.67040 5263 ft 96 kts 110°
2026-04-27 16:51 -34.07681 18.67830 5460 ft 95 kts 110°
2026-04-27 16:51 -34.07822 18.68614 5639 ft 96 kts 105°
2026-04-27 16:51 -34.07958 18.69407 5851 ft 98 kts 105°
2026-04-27 16:52 -34.08092 18.70209 6112 ft 97 kts 105°
2026-04-27 16:52 -34.08227 18.71017 6364 ft 99 kts 106°
2026-04-27 16:52 -34.08362 18.71834 6627 ft 100 kts 105°
2026-04-27 16:52 -34.08499 18.72659 6871 ft 100 kts 105°
2026-04-27 16:53 -34.08643 18.73513 7011 ft 113 kts 105°
2026-04-27 16:53 -34.08807 18.74503 7010 ft 123 kts 104°
2026-04-27 16:53 -34.08971 18.75505 7010 ft 121 kts 104°
2026-04-27 16:53 -34.09135 18.76491 7004 ft 120 kts 104°
2026-04-27 16:54 -34.09297 18.77475 7002 ft 118 kts 104°
2026-04-27 16:54 -34.09459 18.78451 6999 ft 118 kts 104°
2026-04-27 16:54 -34.09620 18.79420 6994 ft 118 kts 104°
2026-04-27 16:54 -34.09779 18.80389 6999 ft 118 kts 104°
2026-04-27 16:55 -34.09939 18.81359 6997 ft 118 kts 104°
2026-04-27 16:55 -34.10101 18.82332 6998 ft 118 kts 104°
2026-04-27 16:55 -34.10262 18.83307 6998 ft 119 kts 104°
2026-04-27 16:55 -34.10423 18.84287 7000 ft 119 kts 104°
2026-04-27 16:56 -34.10586 18.85271 7003 ft 120 kts 103°
2026-04-27 16:56 -34.10748 18.86256 7003 ft 120 kts 103°
2026-04-27 16:56 -34.10910 18.87246 7007 ft 120 kts 103°
2026-04-27 16:56 -34.11075 18.88243 7007 ft 122 kts 103°
2026-04-27 16:57 -34.11241 18.89252 7007 ft 123 kts 103°
2026-04-27 16:57 -34.11407 18.90260 7009 ft 122 kts 103°
2026-04-27 16:57 -34.11571 18.91262 7006 ft 122 kts 103°
2026-04-27 16:57 -34.11737 18.92268 7007 ft 123 kts 102°
2026-04-27 16:58 -34.11904 18.93284 7007 ft 124 kts 103°
2026-04-27 16:58 -34.12070 18.94305 7006 ft 125 kts 102°
2026-04-27 16:58 -34.12242 18.95343 7009 ft 129 kts 102°
2026-04-27 16:58 -34.12414 18.96400 7012 ft 127 kts 103°
2026-04-27 16:59 -34.12585 18.97439 7004 ft 125 kts 102°
2026-04-27 16:59 -34.12753 18.98466 6998 ft 124 kts 102°
2026-04-27 16:59 -34.12921 18.99487 6998 ft 124 kts 102°
2026-04-27 16:59 -34.13086 19.00502 6998 ft 124 kts 103°
2026-04-27 17:00 -34.13362 19.02187 6995 ft 123 kts 102°
2026-04-27 17:00 -34.13582 19.03538 6997 ft 124 kts 102°
2026-04-27 17:00 -34.13750 19.04562 7005 ft 125 kts 102°
2026-04-27 17:01 -34.13918 19.05599 7007 ft 126 kts 102°
2026-04-27 17:01 -34.14087 19.06639 7010 ft 127 kts 102°
2026-04-27 17:01 -34.14258 19.07683 7009 ft 127 kts 102°
2026-04-27 17:01 -34.14428 19.08730 7005 ft 126 kts 101°
2026-04-27 17:02 -34.14596 19.09761 7007 ft 125 kts 100°
2026-04-27 17:02 -34.14766 19.10801 7012 ft 127 kts 100°
2026-04-27 17:02 -34.14938 19.11859 6991 ft 126 kts 101°
2026-04-27 17:02 -34.15104 19.12887 7014 ft 127 kts 102°
2026-04-27 17:03 -34.15274 19.13935 6997 ft 124 kts 101°
2026-04-27 17:03 -34.15439 19.14952 7000 ft 126 kts 100°
2026-04-27 17:03 -34.15607 19.15978 6993 ft 124 kts 100°
2026-04-27 17:03 -34.15776 19.16997 6992 ft 122 kts 100°
2026-04-27 17:04 -34.15934 19.18005 6995 ft 122 kts 101°
2026-04-27 17:04 -34.16098 19.19015 6994 ft 123 kts 100°
2026-04-27 17:04 -34.16263 19.20031 6996 ft 124 kts 101°
2026-04-27 17:04 -34.16427 19.21050 6996 ft 122 kts 100°
2026-04-27 17:05 -34.16589 19.22050 6992 ft 119 kts 100°
2026-04-27 17:05 -34.16747 19.23023 6994 ft 118 kts 101°
2026-04-27 17:05 -34.16906 19.24022 7003 ft 124 kts 101°
2026-04-27 17:05 -34.17020 19.24715 7003 ft 124 kts 101°
2026-04-27 17:06 -34.17240 19.26071 7010 ft 126 kts 101°
2026-04-27 17:06 -34.17405 19.27106 7013 ft 126 kts 101°
2026-04-27 17:06 -34.17574 19.28147 7008 ft 127 kts 102°
2026-04-27 17:06 -34.17740 19.29182 6999 ft 124 kts 102°
2026-04-27 17:07 -34.17905 19.30204 7001 ft 125 kts 102°
2026-04-27 17:07 -34.18071 19.31238 7002 ft 125 kts 102°
2026-04-27 17:07 -34.18237 19.32271 6998 ft 125 kts 101°
2026-04-27 17:07 -34.18404 19.33312 7002 ft 127 kts 102°
2026-04-27 17:08 -34.18570 19.34349 7004 ft 125 kts 101°
2026-04-27 17:08 -34.18738 19.35388 7002 ft 126 kts 102°
2026-04-27 17:08 -34.18904 19.36426 6999 ft 126 kts 102°
2026-04-27 17:08 -34.19070 19.37463 6999 ft 126 kts 102°
2026-04-27 17:09 -34.19238 19.38503 7002 ft 127 kts 102°
2026-04-27 17:09 -34.19404 19.39544 7000 ft 125 kts 103°
2026-04-27 17:09 -34.19569 19.40581 6996 ft 126 kts 103°
2026-04-27 17:09 -34.19736 19.41620 7001 ft 126 kts 103°
2026-04-27 17:10 -34.19904 19.42667 6999 ft 127 kts 103°
2026-04-27 17:10 -34.20015 19.43365 7004 ft 128 kts 102°
2026-04-27 17:10 -34.20185 19.44423 7005 ft 131 kts 103°
2026-04-27 17:10 -34.20416 19.45881 7004 ft 131 kts 103°
2026-04-27 17:11 -34.20531 19.46588 7004 ft 129 kts 103°
2026-04-27 17:11 -34.20919 19.49034 6982 ft 123 kts 103°
2026-04-27 17:11 -34.21029 19.49715 6984 ft 123 kts 103°
2026-04-27 17:12 -34.21350 19.51740 6990 ft 123 kts 103°
2026-04-27 17:12 -34.21513 19.52761 6995 ft 123 kts 103°
2026-04-27 17:12 -34.21674 19.53786 6991 ft 125 kts 103°
2026-04-27 17:13 -34.21840 19.54822 6991 ft 126 kts 103°
2026-04-27 17:13 -34.21993 19.55858 6993 ft 125 kts 96°
2026-04-27 17:13 -34.21933 19.56905 6995 ft 125 kts 82°
2026-04-27 17:13 -34.21858 19.57955 6997 ft 126 kts 83°
2026-04-27 17:14 -34.21786 19.59011 6998 ft 126 kts 83°
2026-04-27 17:14 -34.21715 19.60068 7000 ft 126 kts 82°
2026-04-27 17:14 -34.21646 19.61125 7003 ft 126 kts 82°
2026-04-27 17:14 -34.21575 19.62177 6999 ft 126 kts 83°
2026-04-27 17:15 -34.21504 19.63226 6995 ft 125 kts 83°
2026-04-27 17:15 -34.21434 19.64273 6986 ft 124 kts 82°
2026-04-27 17:15 -34.21361 19.65314 6989 ft 125 kts 83°
2026-04-27 17:15 -34.21293 19.66365 6986 ft 126 kts 83°
2026-04-27 17:16 -34.21223 19.67419 6979 ft 125 kts 83°
2026-04-27 17:16 -34.21150 19.68470 6982 ft 126 kts 83°
2026-04-27 17:16 -34.21077 19.69525 6986 ft 126 kts 83°
2026-04-27 17:16 -34.21007 19.70584 6988 ft 127 kts 83°
2026-04-27 17:17 -34.20935 19.71649 6989 ft 127 kts 83°
2026-04-27 17:17 -34.20862 19.72706 6988 ft 126 kts 83°
2026-04-27 17:17 -34.20791 19.73767 6990 ft 127 kts 82°
2026-04-27 17:18 -34.20645 19.75887 6985 ft 127 kts 83°
2026-04-27 17:18 -34.20574 19.76941 6984 ft 125 kts 83°
2026-04-27 17:18 -34.20503 19.77989 6986 ft 125 kts 82°
2026-04-27 17:18 -34.20429 19.79043 6980 ft 126 kts 83°
2026-04-27 17:19 -34.20357 19.80095 6983 ft 126 kts 83°
2026-04-27 17:19 -34.20284 19.81160 6992 ft 133 kts 83°
2026-04-27 17:19 -34.20202 19.82329 7058 ft 141 kts 84°
2026-04-27 17:19 -34.20129 19.83417 7431 ft 119 kts 83°
2026-04-27 17:20 -34.20068 19.84332 7785 ft 102 kts 82°
2026-04-27 17:20 -34.20008 19.85188 7978 ft 107 kts 82°
2026-04-27 17:20 -34.19935 19.86179 8004 ft 128 kts 82°
2026-04-27 17:20 -34.19858 19.87293 8002 ft 137 kts 82°
2026-04-27 17:21 -34.19778 19.88463 8000 ft 142 kts 83°
2026-04-27 17:21 -34.19695 19.89659 7997 ft 144 kts 83°
2026-04-27 17:21 -34.19613 19.90864 7996 ft 144 kts 82°
2026-04-27 17:21 -34.19528 19.92070 7993 ft 144 kts 83°
2026-04-27 17:22 -34.19443 19.93284 7999 ft 145 kts 83°
2026-04-27 17:22 -34.19358 19.94506 7995 ft 146 kts 82°
2026-04-27 17:22 -34.19273 19.95728 7995 ft 146 kts 82°
2026-04-27 17:22 -34.19187 19.96951 7989 ft 147 kts 83°
2026-04-27 17:23 -34.19102 19.98163 7991 ft 147 kts 83°
2026-04-27 17:23 -34.19015 19.99406 7988 ft 147 kts 83°
2026-04-27 17:23 -34.18929 20.00627 7992 ft 146 kts 82°
2026-04-27 17:23 -34.18845 20.01834 7988 ft 146 kts 83°
2026-04-27 17:24 -34.18757 20.03056 7989 ft 146 kts 82°
2026-04-27 17:24 -34.18671 20.04277 7988 ft 146 kts 82°
2026-04-27 17:24 -34.18586 20.05500 7988 ft 145 kts 82°
2026-04-27 17:24 -34.18499 20.06711 7981 ft 145 kts 82°
2026-04-27 17:25 -34.18413 20.07927 7980 ft 145 kts 82°
2026-04-27 17:25 -34.18327 20.09141 7975 ft 145 kts 83°
2026-04-27 17:25 -34.18242 20.10330 7975 ft 140 kts 83°
2026-04-27 17:25 -34.18162 20.11469 7972 ft 136 kts 83°
2026-04-27 17:26 -34.18081 20.12592 7974 ft 138 kts 83°
2026-04-27 17:26 -34.17996 20.13775 7974 ft 141 kts 83°
2026-04-27 17:26 -34.17912 20.14964 7981 ft 143 kts 83°
2026-04-27 17:26 -34.17825 20.16164 7981 ft 144 kts 83°
2026-04-27 17:27 -34.17739 20.17367 7980 ft 143 kts 82°
2026-04-27 17:27 -34.17654 20.18555 7982 ft 142 kts 82°
2026-04-27 17:27 -34.17629 20.19748 7976 ft 142 kts 93°
2026-04-27 17:27 -34.17670 20.20944 7978 ft 143 kts 91°
2026-04-27 17:28 -34.17700 20.22137 7982 ft 145 kts 91°
2026-04-27 17:28 -34.17731 20.23349 7980 ft 144 kts 92°
2026-04-27 17:28 -34.17796 20.25795 7976 ft 145 kts 92°
2026-04-27 17:29 -34.17827 20.26990 7978 ft 144 kts 92°
2026-04-27 17:29 -34.17860 20.28197 7979 ft 144 kts 92°
2026-04-27 17:29 -34.17892 20.29406 7976 ft 144 kts 92°
2026-04-27 17:29 -34.17924 20.30605 7972 ft 142 kts 91°
2026-04-27 17:30 -34.17956 20.31800 7970 ft 142 kts 91°
2026-04-27 17:30 -34.18018 20.34195 7971 ft 143 kts 92°
2026-04-27 17:30 -34.18050 20.35399 7972 ft 144 kts 92°
2026-04-27 17:31 -34.18080 20.36606 7972 ft 144 kts 92°
2026-04-27 17:31 -34.18111 20.37813 7975 ft 144 kts 92°
2026-04-27 17:31 -34.18143 20.39019 7973 ft 143 kts 92°
2026-04-27 17:31 -34.18173 20.40214 7974 ft 141 kts 92°
2026-04-27 17:32 -34.18204 20.41402 7972 ft 142 kts 92°
2026-04-27 17:32 -34.18265 20.43804 7972 ft 143 kts 92°
2026-04-27 17:32 -34.18294 20.45003 7971 ft 143 kts 92°
2026-04-27 17:33 -34.18325 20.46205 7972 ft 143 kts 92°
2026-04-27 17:33 -34.18355 20.47413 7974 ft 144 kts 92°
2026-04-27 17:33 -34.18385 20.48621 7973 ft 143 kts 92°
2026-04-27 17:33 -34.18416 20.49820 7968 ft 143 kts 92°
2026-04-27 17:34 -34.18445 20.51017 7972 ft 143 kts 92°
2026-04-27 17:34 -34.18473 20.52198 7978 ft 143 kts 92°
2026-04-27 17:34 -34.18504 20.53402 7973 ft 143 kts 92°
2026-04-27 17:34 -34.18533 20.54603 7967 ft 143 kts 92°
2026-04-27 17:35 -34.18564 20.55800 7970 ft 142 kts 92°
2026-04-27 17:35 -34.18591 20.56996 7968 ft 143 kts 93°
2026-04-27 17:35 -34.18620 20.58195 7966 ft 143 kts 92°
2026-04-27 17:35 -34.18649 20.59398 7967 ft 143 kts 93°
2026-04-27 17:36 -34.18678 20.60604 7963 ft 143 kts 93°
2026-04-27 17:36 -34.18707 20.61801 7964 ft 143 kts 93°
2026-04-27 17:36 -34.18735 20.62997 7966 ft 142 kts 92°
2026-04-27 17:36 -34.18763 20.64187 7965 ft 142 kts 93°
2026-04-27 17:37 -34.18792 20.65377 7968 ft 142 kts 93°
2026-04-27 17:37 -34.18819 20.66567 7968 ft 142 kts 93°
2026-04-27 17:37 -34.18847 20.67756 7968 ft 142 kts 92°
2026-04-27 17:37 -34.18875 20.68932 7966 ft 142 kts 93°
2026-04-27 17:38 -34.18902 20.70139 7968 ft 142 kts 94°
2026-04-27 17:38 -34.18930 20.71320 7965 ft 142 kts 93°
2026-04-27 17:38 -34.18958 20.72510 7967 ft 142 kts 93°
2026-04-27 17:38 -34.18984 20.73702 7964 ft 142 kts 93°
2026-04-27 17:39 -34.19012 20.74881 7966 ft 140 kts 93°
2026-04-27 17:39 -34.19038 20.76052 7965 ft 139 kts 94°
2026-04-27 17:39 -34.19065 20.77215 7963 ft 139 kts 93°
2026-04-27 17:39 -34.19091 20.78379 7961 ft 138 kts 94°
2026-04-27 17:40 -34.19116 20.79535 7965 ft 138 kts 94°
2026-04-27 17:40 -34.19142 20.80694 7965 ft 138 kts 94°
2026-04-27 17:40 -34.19168 20.81857 7964 ft 138 kts 93°
2026-04-27 17:40 -34.19195 20.83012 7961 ft 138 kts 94°
2026-04-27 17:41 -34.19219 20.84171 7963 ft 138 kts 94°
2026-04-27 17:41 -34.19245 20.85331 7961 ft 138 kts 94°
2026-04-27 17:41 -34.19271 20.86490 7962 ft 138 kts 94°
2026-04-27 17:41 -34.19295 20.87648 7961 ft 137 kts 94°
2026-04-27 17:42 -34.19321 20.88804 7966 ft 137 kts 94°
2026-04-27 17:42 -34.19346 20.89958 7965 ft 137 kts 94°
2026-04-27 17:42 -34.19370 20.91111 7961 ft 137 kts 94°
2026-04-27 17:42 -34.19395 20.92258 7959 ft 137 kts 94°
2026-04-27 17:43 -34.19419 20.93402 7959 ft 136 kts 94°
2026-04-27 17:43 -34.19444 20.94548 7961 ft 137 kts 94°
2026-04-27 17:43 -34.19468 20.95680 7958 ft 136 kts 94°
2026-04-27 17:43 -34.19492 20.96820 7956 ft 135 kts 94°
2026-04-27 17:44 -34.19516 20.97965 7960 ft 135 kts 94°
2026-04-27 17:44 -34.19539 20.99101 7960 ft 136 kts 94°
2026-04-27 17:44 -34.19563 21.00245 7961 ft 137 kts 94°
2026-04-27 17:44 -34.19587 21.01391 7960 ft 137 kts 94°
2026-04-27 17:45 -34.19610 21.02546 7960 ft 136 kts 94°
2026-04-27 17:45 -34.19632 21.03634 7954 ft 125 kts 95°
2026-04-27 17:45 -34.19653 21.04662 7956 ft 120 kts 95°
2026-04-27 17:45 -34.19673 21.05656 7957 ft 117 kts 95°
2026-04-27 17:46 -34.19693 21.06633 7956 ft 116 kts 95°
2026-04-27 17:46 -34.19713 21.07601 7953 ft 115 kts 95°
2026-04-27 17:46 -34.19732 21.08558 7955 ft 115 kts 95°
2026-04-27 17:46 -34.19751 21.09526 7959 ft 115 kts 95°
2026-04-27 17:47 -34.19772 21.10497 7960 ft 115 kts 96°
2026-04-27 17:47 -34.19784 21.11151 7960 ft 116 kts 96°
2026-04-27 17:47 -34.19809 21.12438 7959 ft 116 kts 96°
2026-04-27 17:47 -34.19829 21.13408 7955 ft 116 kts 96°
2026-04-27 17:48 -34.19847 21.14375 7955 ft 115 kts 96°
2026-04-27 17:48 -34.19866 21.15339 7954 ft 114 kts 96°
2026-04-27 17:48 -34.19885 21.16297 7951 ft 114 kts 95°
2026-04-27 17:48 -34.19904 21.17256 7958 ft 113 kts 96°
2026-04-27 17:49 -34.19922 21.18206 7956 ft 113 kts 96°
2026-04-27 17:49 -34.19940 21.19156 7954 ft 113 kts 96°
2026-04-27 17:49 -34.19959 21.20107 7955 ft 114 kts 96°
2026-04-27 17:49 -34.19977 21.21063 7955 ft 114 kts 97°
2026-04-27 17:50 -34.19994 21.22017 7956 ft 114 kts 96°
2026-04-27 17:50 -34.20031 21.23923 7958 ft 113 kts 96°
2026-04-27 17:50 -34.20048 21.24873 7953 ft 113 kts 97°
2026-04-27 17:51 -34.20066 21.25817 7951 ft 112 kts 96°
2026-04-27 17:51 -34.20084 21.26761 7952 ft 112 kts 97°
2026-04-27 17:51 -34.20101 21.27707 7952 ft 113 kts 96°
2026-04-27 17:51 -34.20118 21.28653 7957 ft 112 kts 96°
2026-04-27 17:52 -34.20137 21.29602 7959 ft 114 kts 96°
2026-04-27 17:52 -34.20154 21.30565 7962 ft 115 kts 97°
2026-04-27 17:52 -34.20171 21.31528 7965 ft 115 kts 97°
2026-04-27 17:52 -34.20183 21.32163 7964 ft 114 kts 96°
2026-04-27 17:53 -34.20207 21.33449 7963 ft 114 kts 97°
2026-04-27 17:53 -34.20223 21.34403 7963 ft 113 kts 97°
2026-04-27 17:53 -34.20235 21.35032 7961 ft 113 kts 97°
2026-04-27 17:53 -34.20257 21.36303 7956 ft 113 kts 97°
2026-04-27 17:54 -34.20268 21.36935 7959 ft 114 kts 97°
2026-04-27 17:54 -34.20285 21.37892 7957 ft 114 kts 97°
2026-04-27 17:54 -34.20303 21.38850 7962 ft 114 kts 97°
2026-04-27 17:54 -34.20309 21.40130 7958 ft 116 kts 86°
2026-04-27 17:55 -34.20179 21.40769 7956 ft 116 kts 76°
2026-04-27 17:55 -34.19929 21.42018 7920 ft 119 kts 79°
2026-04-27 17:55 -34.19794 21.42705 7759 ft 131 kts 78°
2026-04-27 17:55 -34.19569 21.43847 7343 ft 148 kts 78°
2026-04-27 17:56 -34.19324 21.45097 6719 ft 161 kts 78°
2026-04-27 17:56 -34.19058 21.46441 6069 ft 162 kts 77°
2026-04-27 17:56 -34.18801 21.47744 5447 ft 162 kts 77°
2026-04-27 17:56 -34.18543 21.49055 4967 ft 154 kts 77°
2026-04-27 17:57 -34.18316 21.50200 4941 ft 130 kts 78°
2026-04-27 17:57 -34.18116 21.51215 4937 ft 119 kts 77°
2026-04-27 17:57 -34.17931 21.52160 4940 ft 113 kts 77°
2026-04-27 17:57 -34.17750 21.53071 4946 ft 110 kts 77°
2026-04-27 17:58 -34.17575 21.53961 4950 ft 108 kts 77°
2026-04-27 17:58 -34.17402 21.54841 4950 ft 108 kts 77°
2026-04-27 17:58 -34.17226 21.55724 4951 ft 109 kts 78°
2026-04-27 17:58 -34.17049 21.56617 4944 ft 110 kts 78°
2026-04-27 17:59 -34.16872 21.57517 4961 ft 111 kts 78°
2026-04-27 17:59 -34.16691 21.58426 4958 ft 112 kts 78°
2026-04-27 17:59 -34.16512 21.59334 4960 ft 110 kts 78°
2026-04-27 17:59 -34.16335 21.60229 4952 ft 109 kts 77°
2026-04-27 18:00 -34.16159 21.61117 4947 ft 108 kts 78°
2026-04-27 18:00 -34.15982 21.62006 4959 ft 109 kts 78°
2026-04-27 18:00 -34.15806 21.62897 4947 ft 109 kts 78°
2026-04-27 18:00 -34.15629 21.63793 4947 ft 110 kts 78°
2026-04-27 18:01 -34.15449 21.64695 4956 ft 111 kts 78°
2026-04-27 18:01 -34.15269 21.65596 4947 ft 110 kts 78°
2026-04-27 18:01 -34.15092 21.66495 4952 ft 110 kts 78°
2026-04-27 18:01 -34.14912 21.67390 4947 ft 109 kts 78°
2026-04-27 18:02 -34.14739 21.68268 4950 ft 109 kts 78°
2026-04-27 18:02 -34.14563 21.69157 4949 ft 109 kts 78°
2026-04-27 18:02 -34.14385 21.70046 4947 ft 108 kts 78°
2026-04-27 18:02 -34.14209 21.70935 4946 ft 109 kts 78°
2026-04-27 18:03 -34.14032 21.71819 4954 ft 109 kts 78°
2026-04-27 18:03 -34.13856 21.72706 4951 ft 108 kts 78°
2026-04-27 18:03 -34.13678 21.73595 4955 ft 109 kts 78°
2026-04-27 18:03 -34.13500 21.74482 4958 ft 109 kts 78°
2026-04-27 18:04 -34.13324 21.75376 4960 ft 109 kts 79°
2026-04-27 18:04 -34.13144 21.76272 4966 ft 110 kts 78°
2026-04-27 18:04 -34.12966 21.77165 4964 ft 109 kts 78°
2026-04-27 18:04 -34.12788 21.78060 4956 ft 110 kts 78°
2026-04-27 18:05 -34.12607 21.78958 4962 ft 110 kts 77°
2026-04-27 18:05 -34.12429 21.79853 4953 ft 110 kts 78°
2026-04-27 18:05 -34.12250 21.80748 4960 ft 109 kts 78°
2026-04-27 18:05 -34.12073 21.81635 4956 ft 110 kts 78°
2026-04-27 18:06 -34.11893 21.82530 4964 ft 110 kts 78°
2026-04-27 18:06 -34.11713 21.83430 4957 ft 110 kts 78°
2026-04-27 18:06 -34.11534 21.84327 4956 ft 111 kts 78°
2026-04-27 18:06 -34.11356 21.85214 4958 ft 110 kts 78°
2026-04-27 18:07 -34.11177 21.86108 4958 ft 109 kts 77°
2026-04-27 18:07 -34.10996 21.87014 4956 ft 110 kts 79°
2026-04-27 18:07 -34.10818 21.87896 4949 ft 110 kts 78°
2026-04-27 18:07 -34.10638 21.88790 4958 ft 109 kts 78°
2026-04-27 18:08 -34.10460 21.89681 4953 ft 109 kts 78°
2026-04-27 18:08 -34.10282 21.90571 4957 ft 109 kts 78°
2026-04-27 18:08 -34.10096 21.91488 4805 ft 120 kts 77°
2026-04-27 18:08 -34.09887 21.92537 4434 ft 137 kts 77°
2026-04-27 18:09 -34.09649 21.93713 3858 ft 151 kts 77°
2026-04-27 18:09 -34.09398 21.94961 3276 ft 153 kts 77°
2026-04-27 18:09 -34.09148 21.96204 2707 ft 151 kts 76°
2026-04-27 18:09 -34.08906 21.97414 2133 ft 147 kts 77°
2026-04-27 18:10 -34.08662 21.98613 1509 ft 145 kts 76°
2026-04-27 18:10 -34.08454 21.99648 1437 ft 112 kts 76°
2026-04-27 18:10 -34.08282 22.00501 1433 ft 98 kts 76°
2026-04-27 18:10 -34.08129 22.01262 1428 ft 87 kts 76°
2026-04-27 18:11 -34.07990 22.01952 1428 ft 84 kts 76°
2026-04-27 18:11 -34.07853 22.02622 1436 ft 81 kts 75°
2026-04-27 18:11 -34.07721 22.03278 1434 ft 82 kts 76°
2026-04-27 18:11 -34.07590 22.03928 1434 ft 81 kts 76°
2026-04-27 18:12 -34.07455 22.04589 1440 ft 81 kts 75°
2026-04-27 18:12 -34.07323 22.05252 1441 ft 82 kts 72°
2026-04-27 18:12 -34.07187 22.05929 1447 ft 84 kts 73°
2026-04-27 18:12 -34.07044 22.06623 1452 ft 85 kts 76°
2026-04-27 18:13 -34.06907 22.07308 1453 ft 83 kts 75°
2026-04-27 18:13 -34.06771 22.07983 1451 ft 83 kts 74°
2026-04-27 18:13 -34.06620 22.08687 1457 ft 88 kts 73°
2026-04-27 18:13 -34.06460 22.09408 1458 ft 92 kts 72°
2026-04-27 18:14 -34.06293 22.10139 1451 ft 88 kts 74°
2026-04-27 18:14 -34.06139 22.10851 1455 ft 88 kts 75°
2026-04-27 18:14 -34.05983 22.11564 1454 ft 88 kts 73°
2026-04-27 18:14 -34.05826 22.12271 1451 ft 87 kts 73°
2026-04-27 18:15 -34.05668 22.12968 1450 ft 87 kts 72°
2026-04-27 18:15 -34.05507 22.13685 1448 ft 86 kts 74°
2026-04-27 18:15 -34.05355 22.14386 1446 ft 92 kts 73°
2026-04-27 18:15 -34.05167 22.15220 1493 ft 112 kts 72°
2026-04-27 18:16 -34.04940 22.16179 1488 ft 126 kts 72°
2026-04-27 18:16 -34.04692 22.17217 1516 ft 127 kts 72°
2026-04-27 18:16 -34.04472 22.18160 1915 ft 106 kts 74°
2026-04-27 18:16 -34.04292 22.18942 2309 ft 88 kts 72°
2026-04-27 18:17 -34.04139 22.19629 2577 ft 84 kts 72°
2026-04-27 18:17 -34.03985 22.20313 2736 ft 84 kts 72°
2026-04-27 18:17 -34.03822 22.21052 2823 ft 103 kts 75°
2026-04-27 18:17 -34.03623 22.21966 2899 ft 120 kts 76°
2026-04-27 18:18 -34.03403 22.22980 2965 ft 128 kts 83°
2026-04-27 18:18 -34.03484 22.24061 2917 ft 139 kts 91°
2026-04-27 18:18 -34.03267 22.25266 2580 ft 155 kts 75°
2026-04-27 18:18 -34.03000 22.26541 2255 ft 152 kts 76°
2026-04-27 18:19 -34.02751 22.27755 2067 ft 149 kts 75°
2026-04-27 18:19 -34.02503 22.28970 1835 ft 148 kts 77°
2026-04-27 18:19 -34.02254 22.30168 1585 ft 146 kts 74°
2026-04-27 18:19 -34.02141 22.31341 1485 ft 135 kts 95°
2026-04-27 18:20 -34.02259 22.32417 1492 ft 127 kts 95°
2026-04-27 18:20 -34.02271 22.33504 1484 ft 131 kts 88°
2026-04-27 18:20 -34.02250 22.34596 1479 ft 128 kts 85°
2026-04-27 18:20 -34.02217 22.35659 1486 ft 127 kts 86°
2026-04-27 18:21 -34.02190 22.36729 1489 ft 128 kts 86°
2026-04-27 18:21 -34.02221 22.37805 1485 ft 129 kts 96°
2026-04-27 18:21 -34.02360 22.38872 1492 ft 128 kts 95°
2026-04-27 18:21 -34.02470 22.39940 1496 ft 129 kts 98°
2026-04-27 18:22 -34.02598 22.41030 1497 ft 131 kts 97°
2026-04-27 18:22 -34.02692 22.42133 1505 ft 134 kts 95°
2026-04-27 18:22 -34.02628 22.43216 1615 ft 120 kts 60°
2026-04-27 18:22 -34.02089 22.43663 1474 ft 84 kts 356°
2026-04-27 18:23 -34.01504 22.43717 1451 ft 86 kts 348°
2026-04-27 18:23 -34.00904 22.43632 1411 ft 86 kts 339°
2026-04-27 18:23 -34.00498 22.43233 1271 ft 78 kts 290°
2026-04-27 18:23 -34.00423 22.42609 1135 ft 74 kts 273°
2026-04-27 18:24 -34.00418 22.42012 1163 ft 72 kts 269°
2026-04-27 18:24 -34.00459 22.41409 1090 ft 73 kts 268°
2026-04-27 18:24 -34.00486 22.40810 1014 ft 71 kts 271°
2026-04-27 18:24 -34.00495 22.40192 923 ft 75 kts 271°
2026-04-27 18:25 -34.00507 22.39557 843 ft 76 kts 269°
2026-04-27 18:25 -34.00520 22.38969 701 ft 65 kts 269°
2026-04-27 18:25 -34.00537 22.38446 648 ft 55 kts 268°
2026-04-27 18:25 -34.00542 22.38164 642 ft 22 kts 268°
2026-04-27 18:26 -34.00546 22.37993 642 ft 21 kts 258°
2026-04-27 18:26 -34.00494 22.37886 641 ft 16 kts 355°
2026-04-27 18:26 -34.00366 22.37886 641 ft 20 kts
2026-04-27 18:26 -34.00344 22.37817 640 ft 13 kts 271°
2026-04-27 18:27 -34.00343 22.37691 639 ft 16 kts 299°
2026-04-27 18:27 -34.00280 22.37682 639 ft 13 kts
2026-04-27 18:27 -34.00170 22.37680 639 ft 19 kts 344°
2026-04-27 18:27 -34.00153 22.37634 638 ft 0 kts 274°